M I D A S
Marine Information and Data Acquisition System
Tripno 1648 of the Zeeleeuw from 2009-02-27 08:53:17 to 2009-02-27 17:11:21
Back to CruiseResearch ActivitiesStationsMapUnderway DataData graphs

EquipmentUnitsComment
TimeDGPSUTC
LatitudeDGPSDM.mWGS84
LongitudeDGPSDM.mWGS84
TemperatureSBE03/SBE38deg celciusITS90
ConductivitySBE21S/mITS90
SalinitySBE21 Practical Salinity Units
ChlorophylAChelsea fluorimeterg/lCalibrated in Aceton
Missing or incorrect values are displayed as -999
Sea surface data collected by the RV Zeeleeuw from 2009-02-27 08:38:06 to 2009-02-27 17:10:25
Time Latitude Longitude Temperature Conductivity Salinity ChlorophylA
2009-02-27 08:39:11 51°13.674 2°55.925 -999 0.075859 0.412586 -1.279161
2009-02-27 08:40:11 51°13.697 2°55.852 -999 0.075859 0.412622 -1.279161
2009-02-27 08:41:11 51°13.701 2°55.773 -999 0.075859 0.412622 -1.279161
2009-02-27 08:42:10 51°13.708 2°55.758 -999 0.075756 0.412072 -1.279161
2009-02-27 08:43:10 51°13.707 2°55.754 -999 0.075756 0.412072 -1.244337
2009-02-27 08:44:10 51°13.745 2°55.716 -999 0.075756 0.412087 -1.244337
2009-02-27 08:45:10 51°13.85 2°55.623 -999 0.075756 0.41213 -1.244337
2009-02-27 08:46:11 51°13.973 2°55.532 -999 0.075756 0.412137 -1.279161
2009-02-27 08:47:10 51°14.097 2°55.44 -999 0.075756 0.41213 -1.279161
2009-02-27 08:48:10 51°14.224 2°55.323 -999 0.075756 0.412159 -1.244337
2009-02-27 08:49:10 51°14.336 2°55.155 -999 0.075756 0.412195 -1.244337
2009-02-27 08:50:10 51°14.44 2°54.943 -999 0.075756 0.412202 -1.313985
2009-02-27 08:51:10 51°14.595 2°54.779 -999 0.075756 0.412275 -1.313985
2009-02-27 08:52:10 51°14.763 2°54.618 -999 0.075756 0.412297 -1.313985
2009-02-27 08:53:10 51°14.933 2°54.461 -999 0.075756 0.412325 -1.348809
2009-02-27 08:54:10 51°15.106 2°54.307 -999 0.075756 0.412391 -1.313985
2009-02-27 08:55:10 51°15.277 2°54.154 -999 0.075756 0.41247 -1.313985
2009-02-27 08:56:10 51°15.445 2°53.99 -999 0.075756 0.412543 -1.313985
2009-02-27 08:57:10 51°15.611 2°53.827 -999 0.075756 0.412594 4.257864
2009-02-27 08:58:10 51°15.781 2°53.67 -999 0.075756 0.412659 5.058817
2009-02-27 08:59:10 51°15.951 2°53.51 -999 0.075756 0.412724 4.815049
2009-02-27 09:00:10 51°16.122 2°53.356 -999 0.075756 0.412782 4.431984
2009-02-27 09:01:10 51°16.296 2°53.212 -999 0.075653 0.412238 4.292688
2009-02-27 09:02:10 51°16.473 2°53.088 -999 0.075653 0.412282 4.292688
2009-02-27 09:03:10 51°16.653 2°52.972 -999 0.075653 0.412325 5.093641
2009-02-27 09:04:10 51°16.827 2°52.851 -999 0.075653 0.412362 6.068715
2009-02-27 09:05:10 51°16.992 2°52.723 -999 0.075653 0.412405 6.730372
2009-02-27 09:06:10 51°17.155 2°52.594 -999 0.075653 0.412456 6.591076
2009-02-27 09:07:10 51°17.32 2°52.472 -999 0.075653 0.412492 6.277659
2009-02-27 09:08:10 51°17.484 2°52.336 -999 0.075653 0.412536 5.824946
2009-02-27 09:09:10 51°17.642 2°52.18 -999 0.075653 0.412572 5.581178
2009-02-27 09:10:10 51°17.795 2°52.013 -999 0.075653 0.412609 5.476706
2009-02-27 09:11:10 51°17.95 2°51.85 -999 0.075653 0.412645 5.85977
2009-02-27 09:12:10 51°18.105 2°51.684 -999 0.075653 0.412681 5.999067
2009-02-27 09:13:10 51°18.258 2°51.504 -999 0.075653 0.41271 5.546354
2009-02-27 09:14:10 51°18.411 2°51.326 -999 0.075653 0.412761 5.093641
2009-02-27 09:15:10 51°18.562 2°51.154 -999 0.075653 0.412783 4.606104
2009-02-27 09:16:10 51°18.657 2°51.166 -999 0.075653 0.41287 3.665855
2009-02-27 09:17:10 51°18.785 2°51.038 -999 0.075653 0.4129 3.561383
2009-02-27 09:18:10 51°18.932 2°50.845 -999 0.075653 0.412907 3.213142
2009-02-27 09:19:10 51°19.083 2°50.641 -999 0.075653 0.412943 3.28279
2009-02-27 09:20:10 51°19.235 2°50.436 -999 0.075653 0.412972 3.317614
2009-02-27 09:21:10 51°19.391 2°50.239 -999 0.075653 0.413016 3.456911
2009-02-27 09:22:10 51°19.55 2°50.048 -999 0.075653 0.413038 3.909623
2009-02-27 09:23:10 51°19.712 2°49.862 -999 0.075653 0.413082 4.292688
2009-02-27 09:24:10 51°19.878 2°49.679 -999 0.075653 0.413125 4.466808
2009-02-27 09:25:10 51°20.047 2°49.502 -999 0.075653 0.413169 4.153392
2009-02-27 09:26:10 51°20.216 2°49.323 -999 0.075653 0.41322 3.456911
2009-02-27 09:27:10 51°20.382 2°49.143 -999 0.075653 0.413257 2.864902
2009-02-27 09:28:10 51°20.552 2°48.972 -999 0.075653 0.413308 2.551485
2009-02-27 09:29:10 51°20.725 2°48.806 -999 0.075653 0.413359 2.342541
2009-02-27 09:30:10 51°20.9 2°48.644 -999 0.075653 0.413395 2.272893
2009-02-27 09:31:10 51°21.08 2°48.502 -999 0.075653 0.413446 2.412189
2009-02-27 09:32:10 51°21.26 2°48.36 -999 0.075653 0.413497 2.690782
2009-02-27 09:33:10 51°21.44 2°48.212 -999 0.075653 0.413541 2.899726
2009-02-27 09:34:10 51°21.617 2°48.06 -999 0.075653 0.4136 3.039022
2009-02-27 09:35:10 51°21.795 2°47.906 -999 0.075653 0.413665 3.178318
2009-02-27 09:36:10 51°21.976 2°47.758 -999 0.075653 0.413643 3.700679
2009-02-27 09:37:10 51°22.155 2°47.613 -999 0.075653 0.413695 3.805151
2009-02-27 09:38:10 51°22.33 2°47.475 -999 0.075653 0.41376 4.04892
2009-02-27 09:39:10 51°22.5 2°47.334 -999 0.075653 0.413812 5.093641
2009-02-27 09:40:10 51°22.671 2°47.19 -999 0.075653 0.413856 5.33741
2009-02-27 09:41:10 51°22.839 2°47.037 -999 0.075653 0.413907 5.33741
2009-02-27 09:42:10 51°23.01 2°46.888 -999 0.075653 0.413943 5.407058
2009-02-27 09:43:10 51°23.18 2°46.736 -999 0.075653 0.413987 6.486603
2009-02-27 09:44:10 51°23.334 2°46.542 -999 0.075653 0.414039 5.058817
2009-02-27 09:45:10 51°23.455 2°46.277 -999 0.075653 0.414075 4.989169
2009-02-27 09:46:10 51°23.541 2°45.968 -999 0.075653 0.414112 6.103539
2009-02-27 09:47:10 51°23.619 2°45.648 -999 0.075653 0.414156 5.964243
2009-02-27 09:48:10 51°23.73 2°45.362 -999 0.075653 0.414193 6.103539
2009-02-27 09:49:10 51°23.893 2°45.201 -999 0.075653 0.414229 6.173187
2009-02-27 09:50:10 51°24.071 2°45.21 -999 0.075653 0.414251 5.407058
2009-02-27 09:51:11 51°24.229 2°45.337 -999 0.075653 0.414288 5.650826
2009-02-27 09:52:10 51°24.359 2°45.513 -999 0.075653 0.414354 5.232937
2009-02-27 09:53:10 51°24.471 2°45.723 -999 0.075653 0.414361 5.023993
2009-02-27 09:54:10 51°24.571 2°45.951 -999 0.075653 0.414398 5.232937
2009-02-27 09:55:10 51°24.669 2°46.185 -999 0.075653 0.414435 5.163289
2009-02-27 09:56:11 51°24.77 2°46.417 -999 0.075653 0.414471 4.780225
2009-02-27 09:57:10 51°24.869 2°46.642 -999 0.075653 0.414515 5.023993
2009-02-27 09:58:10 51°24.967 2°46.876 -999 0.075653 0.414523 5.023993
2009-02-27 09:59:10 51°25.061 2°47.111 -999 0.075653 0.414552 5.33741
2009-02-27 10:00:10 51°25.159 2°47.34 -999 0.075653 0.414582 5.163289
2009-02-27 10:01:10 51°25.258 2°47.572 -999 0.075653 0.414596 4.57128
2009-02-27 10:02:10 51°25.354 2°47.808 -999 0.075653 0.414626 4.57128
2009-02-27 10:03:10 51°25.447 2°48.045 -999 0.075653 0.414662 4.257864
2009-02-27 10:04:10 51°25.536 2°48.286 -999 0.075653 0.41467 4.014096
2009-02-27 10:05:11 51°25.618 2°48.534 -999 0.075653 0.414699 4.292688
2009-02-27 10:06:10 51°25.696 2°48.772 -999 0.075653 0.414721 4.153392
2009-02-27 10:07:11 51°25.778 2°49.022 -999 0.075653 0.414729 4.153392
2009-02-27 10:08:10 51°25.86 2°49.262 -999 0.075653 0.414758 4.431984
2009-02-27 10:09:11 51°25.94 2°49.512 -999 0.075653 0.41478 4.501632
2009-02-27 10:10:10 51°26.014 2°49.756 -999 0.075653 0.414802 5.058817
2009-02-27 10:11:10 51°26.095 2°50.001 -999 0.075653 0.414824 5.302586
2009-02-27 10:12:10 51°26.171 2°50.251 -999 0.075653 0.414854 5.546354
2009-02-27 10:13:10 51°26.248 2°50.504 -999 0.075653 0.414861 5.581178
2009-02-27 10:14:10 51°26.328 2°50.755 -999 0.075653 0.414898 5.929418
2009-02-27 10:15:10 51°26.414 2°51.001 -999 0.075653 0.414905 5.33741
2009-02-27 10:16:10 51°26.505 2°51.243 -999 0.075653 0.414935 5.128465
2009-02-27 10:17:10 51°26.594 2°51.487 -999 0.075653 0.414949 5.023993
2009-02-27 10:18:11 51°26.687 2°51.73 -999 0.075653 0.414979 4.675753
2009-02-27 10:19:10 51°26.773 2°51.971 -999 0.075653 0.414993 4.640929
2009-02-27 10:20:11 51°26.861 2°52.217 -999 0.075653 0.415016 4.640929
2009-02-27 10:21:10 51°26.947 2°52.453 -999 0.075653 0.415045 4.431984
2009-02-27 10:22:10 51°27.036 2°52.695 -999 0.075653 0.415052 4.606104
2009-02-27 10:23:10 51°27.12 2°52.944 -999 0.075653 0.415082 4.57128
2009-02-27 10:24:10 51°27.205 2°53.193 -999 0.075653 0.415089 4.327512
2009-02-27 10:25:10 51°27.29 2°53.438 -999 0.075653 0.415104 4.675753
2009-02-27 10:26:10 51°27.377 2°53.679 -999 0.075653 0.415126 4.57128
2009-02-27 10:27:10 51°27.463 2°53.922 -999 0.075551 0.414579 4.327512
2009-02-27 10:28:09 51°27.55 2°54.16 -999 0.075551 0.414579 4.083744
2009-02-27 10:29:10 51°27.64 2°54.403 -999 0.075551 0.414601 3.491735
2009-02-27 10:30:10 51°27.724 2°54.644 -999 0.075551 0.41463 2.969374
2009-02-27 10:31:10 51°27.807 2°54.887 -999 0.075551 0.41466 2.93455
2009-02-27 10:32:10 51°27.892 2°55.126 -999 0.075551 0.41449 2.830078
2009-02-27 10:33:10 51°27.982 2°55.361 -999 0.075551 0.414859 2.93455
2009-02-27 10:34:11 51°28.077 2°55.596 -999 0.075551 0.414859 2.864902
2009-02-27 10:35:10 51°28.168 2°55.828 -999 0.075551 0.414888 2.864902
2009-02-27 10:36:10 51°28.261 2°56.059 -999 0.075551 0.41494 2.76043
2009-02-27 10:37:10 51°28.355 2°56.294 -999 0.075551 0.414991 2.864902
2009-02-27 10:38:10 51°28.451 2°56.526 -999 0.075551 0.415013 2.899726
2009-02-27 10:39:10 51°28.545 2°56.759 -999 0.075551 0.415058 2.795254
2009-02-27 10:40:10 51°28.643 2°56.991 -999 0.075551 0.415117 2.655957
2009-02-27 10:41:10 51°28.737 2°57.227 -999 0.075551 0.415146 2.795254
2009-02-27 10:42:10 51°28.831 2°57.463 -999 0.075551 0.415213 2.690782
2009-02-27 10:43:10 51°28.923 2°57.701 -999 0.075551 0.415265 2.76043
2009-02-27 10:44:09 51°29.016 2°57.934 -999 0.075551 0.415302 2.690782
2009-02-27 10:45:10 51°29.111 2°58.177 -999 0.075551 0.415368 2.899726
2009-02-27 10:46:10 51°29.206 2°58.417 -999 0.075551 0.415405 2.586309
2009-02-27 10:47:10 51°29.298 2°58.658 -999 0.075551 0.415442 2.690782
2009-02-27 10:48:10 51°29.393 2°58.901 -999 0.075448 0.414901 2.76043
2009-02-27 10:49:10 51°29.489 2°59.145 -999 0.075448 0.414975 2.725606
2009-02-27 10:50:10 51°29.585 2°59.391 -999 0.075448 0.415012 2.621133
2009-02-27 10:51:10 51°29.679 2°59.634 -999 0.075448 0.415086 2.655957
2009-02-27 10:52:10 51°29.771 2°59.882 -999 0.075448 0.4151 3.178318
2009-02-27 10:53:10 51°29.863 3°0.13 -999 0.075448 0.415152 3.387263
2009-02-27 10:54:10 51°29.957 3°0.377 -999 0.075448 0.415219 3.178318
2009-02-27 10:55:10 51°30.051 3°0.623 -999 0.075448 0.415263 3.247966
2009-02-27 10:56:10 51°30.147 3°0.869 -999 0.075448 0.415308 3.213142
2009-02-27 10:57:10 51°30.24 3°1.116 -999 0.075448 0.415374 3.10867
2009-02-27 10:58:11 51°30.334 3°1.37 -999 0.075448 0.415434 3.143494
2009-02-27 10:59:10 51°30.425 3°1.611 -999 0.075448 0.415515 3.10867
2009-02-27 11:00:10 51°30.52 3°1.858 -999 0.075448 0.415582 3.039022
2009-02-27 11:01:10 51°30.616 3°2.101 -999 0.075448 0.415701 3.073846
2009-02-27 11:02:10 51°30.712 3°2.346 -999 0.075448 0.415715 3.10867
2009-02-27 11:03:10 51°30.807 3°2.595 -999 0.075448 0.415767 3.143494
2009-02-27 11:04:10 51°30.901 3°2.843 -999 0.075345 0.415277 3.247966
2009-02-27 11:05:10 51°30.996 3°3.089 -999 0.075345 0.415299 3.352439
2009-02-27 11:06:10 51°31.09 3°3.338 -999 0.075345 0.415344 3.422087
2009-02-27 11:07:10 51°31.185 3°3.59 -999 0.075345 0.415448 3.631031
2009-02-27 11:08:10 51°31.282 3°3.84 -999 0.075345 0.415492 3.805151
2009-02-27 11:09:10 51°31.379 3°4.092 -999 0.075345 0.415544 3.944447
2009-02-27 11:10:11 51°31.477 3°4.348 -999 0.075345 0.415604 4.083744
2009-02-27 11:11:11 51°31.572 3°4.599 -999 0.075345 0.415685 4.014096
2009-02-27 11:12:10 51°31.67 3°4.844 -999 0.075345 0.41579 4.014096
2009-02-27 11:13:10 51°31.77 3°5.091 -999 0.075345 0.415871 3.944447
2009-02-27 11:14:10 51°31.872 3°5.337 -999 0.075345 0.415961 3.944447
2009-02-27 11:15:10 51°31.972 3°5.589 -999 0.075345 0.416028 3.909623
2009-02-27 11:16:11 51°32.073 3°5.843 -999 0.075242 0.415529 3.839975
2009-02-27 11:17:11 51°32.175 3°6.094 -999 0.075242 0.415581 3.665855
2009-02-27 11:18:10 51°32.275 3°6.34 -999 0.075242 0.415663 3.596207
2009-02-27 11:19:10 51°32.415 3°6.5 -999 0.075242 0.415745 3.491735
2009-02-27 11:20:10 51°32.553 3°6.321 -999 0.075242 0.41576 3.247966
2009-02-27 11:21:10 51°32.677 3°6.067 -999 0.075242 0.415857 2.969374
2009-02-27 11:22:10 51°32.782 3°5.789 -999 0.075242 0.415984 3.143494
2009-02-27 11:23:11 51°32.882 3°5.501 -999 0.075242 0.416051 3.178318
2009-02-27 11:24:11 51°32.982 3°5.22 -999 0.075242 0.416118 3.352439
2009-02-27 11:25:11 51°33.087 3°4.943 -999 0.075242 0.416193 3.596207
2009-02-27 11:26:11 51°33.189 3°4.665 -999 0.075242 0.416222 4.04892
2009-02-27 11:27:10 51°33.277 3°4.382 -999 0.075139 0.415686 4.501632
2009-02-27 11:28:10 51°33.338 3°4.077 -999 0.075139 0.41576 4.710577
2009-02-27 11:29:11 51°33.36 3°3.748 -999 0.075139 0.415812 5.058817
2009-02-27 11:30:11 51°33.336 3°3.423 -999 0.075139 0.41591 5.232937
2009-02-27 11:31:11 51°33.234 3°3.125 -999 0.075139 0.415939 5.407058
2009-02-27 11:32:11 51°33.123 3°2.828 -999 0.075139 0.416007 5.476706
2009-02-27 11:33:11 51°33.009 3°2.532 -999 0.075139 0.416074 5.929418
2009-02-27 11:34:11 51°32.9 3°2.23 -999 0.075139 0.416134 6.068715
2009-02-27 11:35:10 51°32.799 3°1.927 -999 0.075139 0.416171 5.999067
2009-02-27 11:36:10 51°32.698 3°1.617 -999 0.075139 0.416224 6.208011
2009-02-27 11:37:10 51°32.595 3°1.309 -999 0.075139 0.416276 6.277659
2009-02-27 11:38:10 51°32.491 3°1.003 -999 0.075139 0.416321 6.277659
2009-02-27 11:39:10 51°32.387 3°0.696 -999 0.075139 0.416373 6.416955
2009-02-27 11:40:10 51°32.286 3°0.387 -999 0.075036 0.415828 6.416955
2009-02-27 11:41:10 51°32.186 3°0.074 -999 0.075036 0.415881 6.382131
2009-02-27 11:42:10 51°32.085 2°59.763 -999 0.075036 0.415933 6.208011
2009-02-27 11:43:10 51°31.979 2°59.456 -999 0.075036 0.41597 6.103539
2009-02-27 11:44:10 51°31.868 2°59.152 -999 0.075036 0.41603 5.999067
2009-02-27 11:45:10 51°31.765 2°58.84 -999 0.075036 0.41606 5.68565
2009-02-27 11:46:10 51°31.66 2°58.529 -999 0.075036 0.416113 5.68565
2009-02-27 11:47:11 51°31.553 2°58.214 -999 0.075036 0.416165 5.33741
2009-02-27 11:48:10 51°31.451 2°57.908 -999 0.075036 0.416218 5.232937
2009-02-27 11:49:10 51°31.344 2°57.599 -999 0.075036 0.41627 5.616002
2009-02-27 11:50:10 51°31.238 2°57.292 -999 0.075036 0.416323 5.546354
2009-02-27 11:51:10 51°31.139 2°56.981 -999 0.075036 0.416368 5.546354
2009-02-27 11:52:10 51°31.04 2°56.67 -999 0.074933 0.415822 5.407058
2009-02-27 11:53:10 51°30.941 2°56.359 -999 0.074933 0.415882 5.198113
2009-02-27 11:54:10 51°30.84 2°56.054 -999 0.074933 0.415934 5.093641
2009-02-27 11:55:10 51°30.73 2°55.76 -999 0.074933 0.415979 5.023993
2009-02-27 11:56:10 51°30.621 2°55.466 -999 0.074933 0.416024 5.302586
2009-02-27 11:57:10 51°30.513 2°55.18 -999 0.074933 0.416062 5.546354
2009-02-27 11:58:10 51°30.416 2°54.889 -999 0.074933 0.416114 6.312483
2009-02-27 11:59:10 51°30.317 2°54.602 -999 0.074933 0.416182 7.322381
2009-02-27 12:00:10 51°30.219 2°54.315 -999 0.074933 0.416204 7.531325
2009-02-27 12:01:10 51°30.118 2°54.031 -999 0.074933 0.416265 7.531325
2009-02-27 12:02:10 51°30.023 2°53.748 -999 0.074933 0.416287 7.392029
2009-02-27 12:03:10 51°29.923 2°53.467 -999 0.074933 0.41634 7.287557
2009-02-27 12:04:10 51°29.826 2°53.185 -999 0.074933 0.416392 7.14826
2009-02-27 12:05:10 51°29.73 2°52.904 -999 0.074933 0.41643 7.183084
2009-02-27 12:06:10 51°29.632 2°52.624 -999 0.07483 0.415876 7.043788
2009-02-27 12:07:10 51°29.535 2°52.344 -999 0.07483 0.415943 7.078612
2009-02-27 12:08:10 51°29.438 2°52.065 -999 0.07483 0.415966 7.14826
2009-02-27 12:09:10 51°29.343 2°51.786 -999 0.07483 0.416018 7.078612
2009-02-27 12:10:10 51°29.244 2°51.511 -999 0.07483 0.416033 6.765196
2009-02-27 12:11:10 51°29.146 2°51.235 -999 0.07483 0.416086 6.451779
2009-02-27 12:12:10 51°29.047 2°50.961 -999 0.07483 0.416124 6.103539
2009-02-27 12:13:10 51°28.952 2°50.682 -999 0.07483 0.416169 5.616002
2009-02-27 12:14:10 51°28.854 2°50.404 -999 0.07483 0.416214 5.163289
2009-02-27 12:15:10 51°28.759 2°50.127 -999 0.07483 0.416252 4.780225
2009-02-27 12:16:10 51°28.664 2°49.852 -999 0.07483 0.416289 4.780225
2009-02-27 12:17:10 51°28.567 2°49.579 -999 0.07483 0.416342 4.780225
2009-02-27 12:18:11 51°28.47 2°49.302 -999 0.07483 0.416357 4.745401
2009-02-27 12:19:10 51°28.375 2°49.035 -999 0.07483 0.416395 4.606104
2009-02-27 12:20:10 51°28.284 2°48.761 -999 0.07483 0.416447 4.431984
2009-02-27 12:21:10 51°28.193 2°48.487 -999 0.07483 0.416485 3.805151
2009-02-27 12:22:10 51°28.103 2°48.21 -999 0.07483 0.416523 3.213142
2009-02-27 12:23:10 51°28.016 2°47.93 -999 0.074727 0.415968 3.10867
2009-02-27 12:24:10 51°27.919 2°47.658 -999 0.074727 0.416013 3.247966
2009-02-27 12:25:10 51°27.823 2°47.387 -999 0.074727 0.416035 3.596207
2009-02-27 12:26:10 51°27.727 2°47.113 -999 0.074727 0.416073 4.153392
2009-02-27 12:27:10 51°27.634 2°46.839 -999 0.074727 0.416111 4.466808
2009-02-27 12:28:10 51°27.539 2°46.567 -999 0.074727 0.416133 4.815049
2009-02-27 12:29:10 51°27.439 2°46.301 -999 0.074727 0.416186 4.745401
2009-02-27 12:30:10 51°27.338 2°46.037 -999 0.074727 0.416201 4.954345
2009-02-27 12:31:10 51°27.241 2°45.77 -999 0.074727 0.416239 4.745401
2009-02-27 12:32:10 51°27.142 2°45.506 -999 0.074727 0.416277 4.954345
2009-02-27 12:33:10 51°27.044 2°45.242 -999 0.074727 0.416322 4.675753
2009-02-27 12:34:10 51°26.945 2°44.981 -999 0.074727 0.416367 4.22304
2009-02-27 12:35:10 51°26.847 2°44.719 -999 0.074727 0.41639 4.04892
2009-02-27 12:36:10 51°26.749 2°44.46 -999 0.074727 0.416443 3.944447
2009-02-27 12:37:10 51°26.651 2°44.201 -999 0.074727 0.416473 4.362336
2009-02-27 12:38:10 51°26.553 2°43.945 -999 0.074624 0.41594 5.023993
2009-02-27 12:39:10 51°26.455 2°43.689 -999 0.074624 0.41597 5.650826
2009-02-27 12:40:10 51°26.357 2°43.437 -999 0.074624 0.416008 5.929418
2009-02-27 12:41:10 51°26.347 2°43.159 -999 0.074624 0.416038 5.929418
2009-02-27 12:42:10 51°26.491 2°42.949 -999 0.074624 0.416083 5.68565
2009-02-27 12:43:10 51°26.664 2°42.776 -999 0.074624 0.416143 5.267761
2009-02-27 12:44:10 51°26.848 2°42.63 -999 0.074624 0.416174 5.302586
2009-02-27 12:45:10 51°27.035 2°42.482 -999 0.074624 0.416211 4.919521
2009-02-27 12:46:10 51°27.22 2°42.327 -999 0.074624 0.416249 4.780225
2009-02-27 12:47:10 51°27.402 2°42.184 -999 0.074624 0.416279 4.292688
2009-02-27 12:48:10 51°27.594 2°42.145 -999 0.074624 0.416302 4.501632
2009-02-27 12:49:11 51°27.715 2°42.429 -999 0.074624 0.41634 5.372234
2009-02-27 12:50:10 51°27.821 2°42.738 -999 0.074624 0.416385 4.954345
2009-02-27 12:51:10 51°27.927 2°43.054 -999 0.074624 0.416393 5.163289
2009-02-27 12:52:10 51°28.035 2°43.367 -999 0.074624 0.416431 5.128465
2009-02-27 12:53:10 51°28.144 2°43.681 -999 0.074624 0.416484 5.302586
2009-02-27 12:54:10 51°28.249 2°44.001 -999 0.074624 0.416506 5.546354
2009-02-27 12:55:10 51°28.356 2°44.323 -999 0.074624 0.416529 5.824946
2009-02-27 12:56:10 51°28.463 2°44.645 -999 0.074522 0.41595 5.616002
2009-02-27 12:57:10 51°28.577 2°44.963 -999 0.074522 0.415972 5.33741
2009-02-27 12:58:10 51°28.69 2°45.284 -999 0.074522 0.415995 5.128465
2009-02-27 12:59:10 51°28.802 2°45.605 -999 0.074522 0.416025 5.198113
2009-02-27 13:00:10 51°28.911 2°45.932 -999 0.074522 0.416055 5.546354
2009-02-27 13:01:10 51°29.018 2°46.259 -999 0.074522 0.416071 5.894594
2009-02-27 13:02:10 51°29.129 2°46.586 -999 0.074522 0.416093 6.208011
2009-02-27 13:03:10 51°29.239 2°46.91 -999 0.074522 0.416093 6.242835
2009-02-27 13:04:10 51°29.35 2°47.232 -999 0.074522 0.416108 6.591076
2009-02-27 13:05:10 51°29.463 2°47.551 -999 0.074522 0.416131 6.695548
2009-02-27 13:06:10 51°29.583 2°47.867 -999 0.074522 0.416154 6.660724
2009-02-27 13:07:10 51°29.693 2°48.189 -999 0.074522 0.416184 7.043788
2009-02-27 13:08:10 51°29.801 2°48.514 -999 0.074522 0.416199 7.844741
2009-02-27 13:09:10 51°29.912 2°48.838 -999 0.074522 0.416207 8.576047
2009-02-27 13:10:10 51°30.024 2°49.158 -999 0.074522 0.416214 8.889463
2009-02-27 13:11:10 51°30.136 2°49.479 -999 0.074522 0.416245 9.20288
2009-02-27 13:12:10 51°30.252 2°49.795 -999 0.074522 0.416275 9.655592
2009-02-27 13:13:10 51°30.363 2°50.118 -999 0.074522 0.416245 9.55112
2009-02-27 13:14:10 51°30.476 2°50.438 -999 0.074522 0.41626 9.307352
2009-02-27 13:15:10 51°30.589 2°50.754 -999 0.074522 0.416275 8.993935
2009-02-27 13:16:10 51°30.703 2°51.072 -999 0.074522 0.416282 8.784991
2009-02-27 13:17:10 51°30.813 2°51.392 -999 0.074522 0.416305 8.332278
2009-02-27 13:18:10 51°30.924 2°51.716 -999 0.074522 0.41629 7.949214
2009-02-27 13:19:10 51°31.035 2°52.042 -999 0.074522 0.41632 7.531325
2009-02-27 13:20:10 51°31.148 2°52.365 -999 0.074522 0.41632 7.775093
2009-02-27 13:21:10 51°31.259 2°52.687 -999 0.074522 0.416335 7.740269
2009-02-27 13:22:10 51°31.374 2°53.009 -999 0.074522 0.416343 7.531325
2009-02-27 13:23:10 51°31.507 2°53.306 -999 0.074522 0.416358 7.496501
2009-02-27 13:24:10 51°31.693 2°53.504 -999 0.074522 0.416373 7.670621
2009-02-27 13:25:10 51°31.893 2°53.661 -999 0.074522 0.416381 7.426853
2009-02-27 13:26:10 51°32.098 2°53.798 -999 0.074522 0.416404 7.949214
2009-02-27 13:27:10 51°32.304 2°53.93 -999 0.074522 0.416404 8.227806
2009-02-27 13:28:10 51°32.508 2°54.065 -999 0.074522 0.416419 8.227806
2009-02-27 13:29:10 51°32.714 2°54.202 -999 0.074522 0.416426 8.053686
2009-02-27 13:30:10 51°32.918 2°54.345 -999 0.074522 0.416441 7.879566
2009-02-27 13:31:10 51°33.118 2°54.507 -999 0.074522 0.416441 7.879566
2009-02-27 13:32:10 51°33.311 2°54.691 -999 0.074522 0.416464 7.496501
2009-02-27 13:33:11 51°33.5 2°54.903 -999 0.074522 0.416472 7.531325
2009-02-27 13:34:10 51°33.683 2°55.109 -999 0.074522 0.416449 7.392029
2009-02-27 13:35:10 51°33.869 2°55.315 -999 0.074522 0.416464 7.14826
2009-02-27 13:36:10 51°34.059 2°55.52 -999 0.074522 0.416479 7.183084
2009-02-27 13:37:10 51°34.247 2°55.724 -999 0.074522 0.416487 7.357205
2009-02-27 13:38:10 51°34.294 2°56.042 -999 0.074522 0.41651 7.078612
2009-02-27 13:39:10 51°34.204 2°56.353 -999 0.074522 0.416502 6.695548
2009-02-27 13:40:10 51°34.111 2°56.667 -999 0.074522 0.416517 6.6259
2009-02-27 13:41:10 51°34.018 2°56.987 -999 0.074522 0.41654 6.904492
2009-02-27 13:42:10 51°33.923 2°57.3 -999 0.074522 0.416525 7.183084
2009-02-27 13:43:10 51°33.831 2°57.616 -999 0.074522 0.41657 7.496501
2009-02-27 13:44:10 51°33.733 2°57.925 -999 0.074522 0.416532 7.461677
2009-02-27 13:45:10 51°33.642 2°58.241 -999 0.074522 0.416578 7.461677
2009-02-27 13:46:10 51°33.683 2°58.589 -999 0.074522 0.416616 7.496501
2009-02-27 13:47:10 51°33.796 2°58.913 -999 0.074522 0.416623 7.043788
2009-02-27 13:48:10 51°33.917 2°59.228 -999 0.074522 0.416639 7.183084
2009-02-27 13:49:10 51°34.04 2°59.543 -999 0.074522 0.416669 7.566149
2009-02-27 13:50:10 51°34.153 2°59.866 -999 0.074522 0.416677 7.809917
2009-02-27 13:51:10 51°34.267 3°0.191 -999 0.074522 0.416699 7.705445
2009-02-27 13:52:10 51°34.383 3°0.512 -999 0.074522 0.416707 7.740269
2009-02-27 13:53:10 51°34.494 3°0.834 -999 0.074522 0.416707 7.740269
2009-02-27 13:54:10 51°34.635 3°1.11 -999 0.074522 0.416752 7.775093
2009-02-27 13:55:10 51°34.813 3°1.067 -999 0.074522 0.416768 7.879566
2009-02-27 13:56:10 51°34.93 3°0.837 -999 0.074522 0.41673 7.461677
2009-02-27 13:57:10 51°35.057 3°0.606 -999 0.074522 0.416752 7.322381
2009-02-27 13:58:10 51°35.186 3°0.379 -999 0.074522 0.416768 7.600973
2009-02-27 13:59:10 51°35.313 3°0.147 -999 0.074522 0.416768 7.426853
2009-02-27 14:00:10 51°35.444 2°59.918 -999 0.074522 0.416768 7.252733
2009-02-27 14:01:10 51°35.575 2°59.688 -999 0.074522 0.416775 7.775093
2009-02-27 14:02:10 51°35.697 2°59.452 -999 0.074522 0.416783 6.695548
2009-02-27 14:03:11 51°35.733 2°59.194 -999 0.074522 0.416813 6.382131
2009-02-27 14:04:10 51°35.686 2°58.936 -999 0.074522 0.41679 6.103539
2009-02-27 14:05:10 51°35.614 2°58.694 -999 0.074522 0.416806 5.929418
2009-02-27 14:06:10 51°35.527 2°58.463 -999 0.074522 0.416806 6.173187
2009-02-27 14:07:10 51°35.435 2°58.233 -999 0.074522 0.416828 6.277659
2009-02-27 14:08:10 51°35.345 2°58.003 -999 0.074522 0.416836 6.382131
2009-02-27 14:09:10 51°35.258 2°57.77 -999 0.074522 0.416851 6.556251
2009-02-27 14:10:10 51°35.172 2°57.532 -999 0.074522 0.416874 6.660724
2009-02-27 14:11:10 51°35.083 2°57.299 -999 0.074522 0.416874 7.008964
2009-02-27 14:12:10 51°34.994 2°57.065 -999 0.074522 0.416889 7.392029
2009-02-27 14:13:10 51°34.911 2°56.826 -999 0.074522 0.416889 7.984038
2009-02-27 14:14:10 51°34.826 2°56.59 -999 0.074522 0.416912 8.018862
2009-02-27 14:15:10 51°34.736 2°56.353 -999 0.074522 0.416927 8.018862
2009-02-27 14:16:10 51°34.653 2°56.114 -999 0.074522 0.41695 8.750167
2009-02-27 14:17:10 51°34.567 2°55.879 -999 0.074522 0.41695 8.471574
2009-02-27 14:18:10 51°34.484 2°55.643 -999 0.074522 0.416958 7.879566
2009-02-27 14:19:10 51°34.401 2°55.408 -999 0.074419 0.416415 7.496501
2009-02-27 14:20:10 51°34.321 2°55.175 -999 0.074419 0.416437 7.426853
2009-02-27 14:21:10 51°34.241 2°54.938 -999 0.074419 0.416445 7.426853
2009-02-27 14:22:10 51°34.159 2°54.704 -999 0.074419 0.416468 7.357205
2009-02-27 14:23:10 51°34.076 2°54.474 -999 0.074419 0.416483 7.566149
2009-02-27 14:24:10 51°33.996 2°54.238 -999 0.074419 0.416491 7.461677
2009-02-27 14:25:10 51°33.914 2°54.005 -999 0.074419 0.416498 7.740269
2009-02-27 14:26:10 51°33.829 2°53.773 -999 0.074419 0.416506 7.600973
2009-02-27 14:27:10 51°33.746 2°53.538 -999 0.074419 0.416551 7.705445
2009-02-27 14:28:10 51°33.663 2°53.304 -999 0.074419 0.416574 8.018862
2009-02-27 14:29:10 51°33.583 2°53.066 -999 0.074419 0.416551 8.08851
2009-02-27 14:30:10 51°33.502 2°52.826 -999 0.074419 0.416582 8.123334
2009-02-27 14:31:10 51°33.419 2°52.586 -999 0.074419 0.416589 8.297454
2009-02-27 14:32:10 51°33.334 2°52.346 -999 0.074419 0.416612 8.506398
2009-02-27 14:33:10 51°33.252 2°52.105 -999 0.074419 0.416627 8.645695
2009-02-27 14:34:10 51°33.167 2°51.865 -999 0.074419 0.416635 8.680519
2009-02-27 14:35:10 51°33.086 2°51.623 -999 0.074419 0.416643 9.028759
2009-02-27 14:36:10 51°33.002 2°51.381 -999 0.074419 0.416658 9.446648
2009-02-27 14:37:10 51°32.924 2°51.136 -999 0.074419 0.416688 9.899361
2009-02-27 14:38:10 51°32.844 2°50.892 -999 0.074419 0.416703 10.282425
2009-02-27 14:39:10 51°32.76 2°50.648 -999 0.074419 0.416734 10.386897
2009-02-27 14:40:10 51°32.679 2°50.4 -999 0.074419 0.416741 10.595842
2009-02-27 14:41:10 51°32.598 2°50.154 -999 0.074419 0.416764 10.944082
2009-02-27 14:42:10 51°32.515 2°49.911 -999 0.074419 0.416779 10.804786
2009-02-27 14:43:10 51°32.435 2°49.664 -999 0.074419 0.416795 10.282425
2009-02-27 14:44:10 51°32.351 2°49.418 -999 0.074419 0.416825 10.247601
2009-02-27 14:45:10 51°32.268 2°49.17 -999 0.074419 0.416833 10.352073
2009-02-27 14:46:10 51°32.181 2°48.933 -999 0.074419 0.416886 10.317249
2009-02-27 14:47:11 51°32.094 2°48.69 -999 0.074419 0.416916 9.829713
2009-02-27 14:48:10 51°32.013 2°48.455 -999 0.074419 0.416894 9.307352
2009-02-27 14:49:10 51°31.929 2°48.214 -999 0.074419 0.416909 9.063583
2009-02-27 14:50:10 51°31.84 2°47.977 -999 0.074419 0.416932 8.819815
2009-02-27 14:51:10 51°31.755 2°47.737 -999 0.074419 0.416962 8.784991
2009-02-27 14:52:10 51°31.671 2°47.497 -999 0.074419 0.416962 8.750167
2009-02-27 14:53:10 51°31.588 2°47.258 -999 0.074419 0.416977 8.506398
2009-02-27 14:54:10 51°31.5 2°47.025 -999 0.074419 0.416993 8.26263
2009-02-27 14:55:10 51°31.413 2°46.788 -999 0.074419 0.417015 8.192982
2009-02-27 14:56:10 51°31.327 2°46.55 -999 0.074419 0.417031 8.192982
2009-02-27 14:57:10 51°31.243 2°46.313 -999 0.074419 0.417046 8.401926
2009-02-27 14:58:10 51°31.158 2°46.074 -999 0.074419 0.417061 8.367102
2009-02-27 14:59:10 51°31.071 2°45.836 -999 0.074419 0.417076 8.26263
2009-02-27 15:00:10 51°30.981 2°45.603 -999 0.074419 0.417099 8.227806
2009-02-27 15:01:10 51°30.892 2°45.367 -999 0.074419 0.417122 8.576047
2009-02-27 15:02:10 51°30.804 2°45.13 -999 0.074316 0.41654 8.819815
2009-02-27 15:03:10 51°30.714 2°44.893 -999 0.074316 0.416563 8.993935
2009-02-27 15:04:10 51°30.627 2°44.656 -999 0.074316 0.416578 9.20288
2009-02-27 15:05:10 51°30.537 2°44.423 -999 0.074316 0.416609 9.411824
2009-02-27 15:06:10 51°30.444 2°44.191 -999 0.074316 0.416609 9.585944
2009-02-27 15:07:10 51°30.351 2°43.963 -999 0.074316 0.416639 9.620768
2009-02-27 15:08:10 51°30.26 2°43.733 -999 0.074316 0.416654 9.620768
2009-02-27 15:09:10 51°30.174 2°43.499 -999 0.074316 0.41667 9.72524
2009-02-27 15:10:10 51°30.086 2°43.267 -999 0.074316 0.4167 9.899361
2009-02-27 15:11:10 51°29.999 2°43.033 -999 0.074316 0.4167 10.143129
2009-02-27 15:12:10 51°29.912 2°42.801 -999 0.074316 0.416731 10.317249
2009-02-27 15:13:10 51°29.822 2°42.568 -999 0.074316 0.416754 10.561018
2009-02-27 15:14:10 51°29.735 2°42.335 -999 0.074316 0.416776 10.561018
2009-02-27 15:15:10 51°29.645 2°42.107 -999 0.074316 0.416814 10.352073
2009-02-27 15:16:10 51°29.556 2°41.88 -999 0.074316 0.416837 10.212777
2009-02-27 15:17:10 51°29.47 2°41.647 -999 0.074316 0.416853 10.561018
2009-02-27 15:18:10 51°29.383 2°41.417 -999 0.074316 0.416875 10.66549
2009-02-27 15:19:10 51°29.297 2°41.187 -999 0.074316 0.416891 10.735138
2009-02-27 15:20:10 51°29.21 2°40.959 -999 0.074316 0.416914 10.735138
2009-02-27 15:21:10 51°29.124 2°40.728 -999 0.074316 0.416952 10.456545
2009-02-27 15:22:10 51°29.036 2°40.499 -999 0.074316 0.416967 10.282425
2009-02-27 15:23:10 51°28.948 2°40.268 -999 0.074316 0.417005 10.282425
2009-02-27 15:24:10 51°28.862 2°40.032 -999 0.074316 0.417013 9.899361
2009-02-27 15:25:10 51°28.772 2°39.8 -999 0.074316 0.417028 9.620768
2009-02-27 15:26:10 51°28.685 2°39.565 -999 0.074316 0.417059 9.620768
2009-02-27 15:27:11 51°28.565 2°39.393 -999 0.074316 0.417081 9.794888
2009-02-27 15:28:10 51°28.394 2°39.421 -999 0.074316 0.417081 9.342176
2009-02-27 15:29:10 51°28.216 2°39.482 -999 0.074316 0.417097 8.924287
2009-02-27 15:30:10 51°28.039 2°39.537 -999 0.074316 0.417127 9.20288
2009-02-27 15:31:11 51°27.862 2°39.611 -999 0.074316 0.417165 9.72524
2009-02-27 15:32:11 51°27.695 2°39.734 -999 0.074316 0.417173 9.864537
2009-02-27 15:33:10 51°27.533 2°39.873 -999 0.074316 0.417188 9.760064
2009-02-27 15:34:12 51°27.362 2°40.021 -999 0.074316 0.417204 9.760064
2009-02-27 15:35:10 51°27.201 2°40.158 -999 0.074316 0.417204 9.620768
2009-02-27 15:36:10 51°27.035 2°40.307 -999 0.074316 0.417211 9.133231
2009-02-27 15:37:10 51°26.868 2°40.455 -999 0.074316 0.417234 8.854639
2009-02-27 15:38:10 51°26.701 2°40.598 -999 0.074316 0.417249 8.680519
2009-02-27 15:39:10 51°26.532 2°40.736 -999 0.074316 0.417242 8.680519
2009-02-27 15:40:10 51°26.363 2°40.876 -999 0.074316 0.417272 8.506398
2009-02-27 15:41:10 51°26.193 2°41.014 -999 0.074316 0.41728 8.26263
2009-02-27 15:42:10 51°26.021 2°41.142 -999 0.074316 0.41728 8.227806
2009-02-27 15:43:12 51°25.845 2°41.283 -999 0.074316 0.417326 8.227806
2009-02-27 15:44:10 51°25.681 2°41.421 -999 0.074316 0.417357 8.506398
2009-02-27 15:45:10 51°25.514 2°41.564 -999 0.074316 0.417372 8.750167
2009-02-27 15:46:10 51°25.347 2°41.709 -999 0.074316 0.41741 8.924287
2009-02-27 15:47:10 51°25.185 2°41.872 -999 0.074316 0.417441 9.307352
2009-02-27 15:48:10 51°25.035 2°42.069 -999 0.074316 0.417464 10.038657
2009-02-27 15:49:11 51°24.883 2°42.271 -999 0.074316 0.417509 10.282425
2009-02-27 15:50:10 51°24.734 2°42.465 -999 0.074316 0.417525 10.247601
2009-02-27 15:51:10 51°24.579 2°42.655 -999 0.074316 0.417563 10.177953
2009-02-27 15:52:10 51°24.423 2°42.843 -999 0.074316 0.417594 10.352073
2009-02-27 15:53:10 51°24.267 2°43.035 -999 0.074316 0.417624 10.386897
2009-02-27 15:54:11 51°24.11 2°43.237 -999 0.074316 0.417632 10.456545
2009-02-27 15:55:10 51°23.956 2°43.43 -999 0.074316 0.417663 10.317249
2009-02-27 15:56:10 51°23.798 2°43.62 -999 0.074316 0.417678 9.934185
2009-02-27 15:57:10 51°23.639 2°43.811 -999 0.074316 0.417709 9.72524
2009-02-27 15:58:10 51°23.47 2°43.967 -999 0.074316 0.417739 9.516296
2009-02-27 15:59:10 51°23.296 2°44.115 -999 0.074316 0.417762 9.168055
2009-02-27 16:00:10 51°23.124 2°44.266 -999 0.074316 0.417785 9.272528
2009-02-27 16:01:11 51°22.944 2°44.39 -999 0.074316 0.417816 9.272528
2009-02-27 16:02:10 51°22.769 2°44.509 -999 0.074316 0.417831 9.20288
2009-02-27 16:03:10 51°22.591 2°44.628 -999 0.074316 0.417862 9.237704
2009-02-27 16:04:10 51°22.412 2°44.744 -999 0.074316 0.4179 9.168055
2009-02-27 16:05:11 51°22.233 2°44.868 -999 0.074316 0.417939 9.237704
2009-02-27 16:06:10 51°22.059 2°44.988 -999 0.074316 0.417977 9.028759
2009-02-27 16:07:10 51°21.882 2°45.11 -999 0.074316 0.418031 8.645695
2009-02-27 16:08:11 51°21.702 2°45.233 -999 0.074316 0.418054 8.576047
2009-02-27 16:09:10 51°21.527 2°45.347 -999 0.074316 0.418092 8.018862
2009-02-27 16:10:11 51°21.347 2°45.467 -999 0.074316 0.41813 7.879566
2009-02-27 16:11:10 51°21.174 2°45.591 -999 0.074316 0.418169 7.91439
2009-02-27 16:12:10 51°20.999 2°45.713 -999 0.074316 0.418207 7.670621
2009-02-27 16:13:10 51°20.821 2°45.833 -999 0.074316 0.41823 7.879566
2009-02-27 16:14:11 51°20.639 2°45.956 -999 0.074316 0.418261 8.332278
2009-02-27 16:15:10 51°20.466 2°46.093 -999 0.074316 0.418299 8.401926
2009-02-27 16:16:10 51°20.296 2°46.249 -999 0.074316 0.41833 8.784991
2009-02-27 16:17:10 51°20.126 2°46.406 -999 0.074316 0.418369 9.098407
2009-02-27 16:18:10 51°19.957 2°46.562 -999 0.074316 0.418392 9.272528
2009-02-27 16:19:11 51°19.781 2°46.705 -999 0.074316 0.418422 9.133231
2009-02-27 16:20:10 51°19.611 2°46.856 -999 0.074419 0.419084 9.168055
2009-02-27 16:21:11 51°19.439 2°47.009 -999 0.074419 0.419122 8.750167
2009-02-27 16:22:10 51°19.274 2°47.165 -999 0.074419 0.419115 8.26263
2009-02-27 16:23:10 51°19.107 2°47.333 -999 0.074419 0.419169 8.053686
2009-02-27 16:24:11 51°18.938 2°47.504 -999 0.074419 0.419169 8.576047
2009-02-27 16:25:11 51°18.774 2°47.675 -999 0.074419 0.419207 8.018862
2009-02-27 16:26:11 51°18.607 2°47.835 -999 0.074419 0.419246 7.984038
2009-02-27 16:27:10 51°18.442 2°47.993 -999 0.074419 0.419284 8.506398
2009-02-27 16:28:10 51°18.275 2°48.152 -999 0.074419 0.4193 9.516296
2009-02-27 16:29:10 51°18.108 2°48.309 -999 0.074419 0.419346 9.934185
2009-02-27 16:30:11 51°17.938 2°48.465 -999 0.074419 0.419416 9.934185
2009-02-27 16:31:11 51°17.77 2°48.622 -999 0.074419 0.419446 10.212777
2009-02-27 16:32:10 51°17.605 2°48.774 -999 0.074419 0.4195 10.352073
2009-02-27 16:33:10 51°17.436 2°48.934 -999 0.074419 0.419547 10.804786
2009-02-27 16:34:10 51°17.265 2°49.084 -999 0.074419 0.41957 11.710211
2009-02-27 16:35:11 51°17.097 2°49.248 -999 0.074419 0.41964 11.605739
2009-02-27 16:36:10 51°16.934 2°49.408 -999 0.074522 0.420279 12.093276
2009-02-27 16:37:11 51°16.766 2°49.569 -999 0.074522 0.420341 12.197748
2009-02-27 16:38:10 51°16.6 2°49.73 -999 0.074522 0.420372 12.1281
2009-02-27 16:39:11 51°16.424 2°49.888 -999 0.074522 0.420411 11.292323
2009-02-27 16:40:11 51°16.253 2°50.045 -999 0.074522 0.42045 10.456545
2009-02-27 16:41:11 51°16.1 2°50.237 -999 0.074522 0.420527 10.212777
2009-02-27 16:42:11 51°16.017 2°50.526 -999 0.074522 0.420574 10.073481
2009-02-27 16:43:12 51°15.95 2°50.843 -999 0.074522 0.420558 10.003833
2009-02-27 16:44:11 51°15.88 2°51.149 -999 0.074522 0.420636 9.481472
2009-02-27 16:45:11 51°15.807 2°51.456 -999 0.074522 0.420659 8.889463
2009-02-27 16:46:11 51°15.737 2°51.763 -999 0.074522 0.42069 8.297454
2009-02-27 16:47:10 51°15.657 2°52.057 -999 0.074522 0.420705 7.426853
2009-02-27 16:48:11 51°15.566 2°52.357 -999 0.074522 0.420752 7.392029
2009-02-27 16:49:10 51°15.465 2°52.629 -999 0.074522 0.42076 7.566149
2009-02-27 16:50:11 51°15.35 2°52.898 -999 0.074522 0.420799 7.531325
2009-02-27 16:51:11 51°15.235 2°53.159 -999 0.074522 0.420822 7.357205
2009-02-27 16:52:10 51°15.117 2°53.408 -999 0.074522 0.420853 6.591076
2009-02-27 16:53:11 51°14.998 2°53.672 -999 0.074522 0.420876 6.312483
2009-02-27 16:54:10 51°14.885 2°53.923 -999 0.074522 0.4209 6.103539
2009-02-27 16:55:11 51°14.777 2°54.195 -999 0.074522 0.420946 6.765196
2009-02-27 16:56:10 51°14.665 2°54.45 -999 0.074522 0.420954 7.357205
2009-02-27 16:57:11 51°14.544 2°54.704 -999 0.074522 0.420993 7.217908
2009-02-27 16:58:11 51°14.421 2°54.942 -999 0.074522 0.421016 7.183084
2009-02-27 16:59:10 51°14.306 2°55.176 -999 0.074522 0.421055 6.80002
2009-02-27 17:00:11 51°14.189 2°55.35 -999 0.074522 0.421094 6.730372
2009-02-27 17:01:10 51°14.069 2°55.452 -999 0.074522 0.421133 5.720474
2009-02-27 17:02:11 51°13.941 2°55.547 -999 0.074728 0.422384 -1.383633
2009-02-27 17:03:10 51°13.833 2°55.629 -999 0.074728 0.422431 -1.383633
2009-02-27 17:04:11 51°13.748 2°55.73 -999 0.074728 0.422485 -1.348809
2009-02-27 17:05:10 51°13.69 2°55.844 -999 0.074728 0.422517 -1.348809
2009-02-27 17:06:11 51°13.666 2°55.94 -999 0.074728 0.422571 -1.383633
2009-02-27 17:07:11 51°13.663 2°55.957 -999 0.074728 0.422587 -1.348809
2009-02-27 17:08:10 51°13.663 2°55.959 -999 0.074728 0.422634 -1.383633
2009-02-27 17:09:11 51°13.663 2°55.958 -999 0.074728 0.422673 -1.348809
2009-02-27 17:10:10 51°13.663 2°55.959 -999 0.074728 0.422696 -1.383633